Regional Weather Roundup
Issued by NWS

Home | Current Version | Previous Version | Graphics & Text | Print | Product List | Glossary On
Versions: 1 2 3 4 5 6 7 8 9 10 11 12 13 14 15 16 17 18 19 20 21 22 23 24 25 26 27 28 29 30 31 32 33 34 35 36 37 38 39 40 41 42 43 44 45 46 47 48 49 50
000
ASUS43 KMKX 291310
RWRWI

WISCONSIN REGIONAL WEATHER ROUNDUP
NATIONAL WEATHER SERVICE MILWAUKEE/SULLIVAN WI
800 AM CDT FRI MAY 29 2015

NOTE: "FAIR" INDICATES FEW OR NO CLOUDS BELOW 12,000 FEET WITH NO
SIGNIFICANT WEATHER AND/OR OBSTRUCTIONS TO VISIBILITY.

WIZ001-002-006>008-014>016-023>028-291400-
NORTHWEST WISCONSIN

CITY           SKY/WX    TMP DP  RH WIND       PRES   REMARKS
SUPERIOR ARPT  CLOUDY    46  43  89 CALM      29.88R
ASHLAND        LGT RAIN  62  61  96 CALM      29.87F
HAYWARD        CLOUDY    62  59  90 S5        29.89S
SIREN          CLOUDY    63  61  93 S7        29.88S
CUMBERLAND     RAIN      59  59 100 S7        29.89S
RICE LAKE      RAIN      61  59  91 S5        29.91R
CHETEK         CLOUDY    62  60  93 SE6       29.90S
LADYSMITH      CLOUDY    64  58  83 S6        29.93S
EAU CLAIRE     CLOUDY    66  60  81 S10       29.90S
MENOMONIE      CLOUDY    65  62  90 S9        29.90S
NEW RICHMOND   MOSUNNY   62  62  99 S8        29.89S
OSCEOLA        PTSUNNY   64  64 100 SE6       29.90F
$$

WIZ003>005-009-010-017-018-291400-
NORTH CENTRAL WISCONSIN

CITY           SKY/WX    TMP DP  RH WIND       PRES   REMARKS
MANITOWISH WTR DRIZZLE   60  57  89 S6        29.92F
ARBOR VITAE    CLOUDY    62  57  84 S7        29.93F
WOODRUFF       CLOUDY    62  57  84 S7        29.93F
RHINELANDER    CLOUDY    62  56  80 S3        29.95F
EAGLE RIVER    LGT RAIN  60  54  80 CALM      29.94F
LAND O LAKES   LGT RAIN  62  55  80 CALM      29.95F
PHILLIPS       PTSUNNY   63  57  82 S8        29.91F
TOMAHAWK       CLOUDY    61  57  88 CALM      29.94F
MEDFORD        PTSUNNY   62  59  91 S7        29.94F
MERRILL        CLOUDY    62  59  91 S5        29.95F
$$

WIZ029-030-035-036-043>047-291400-
CENTRAL WISCONSIN

CITY           SKY/WX    TMP DP  RH WIND       PRES   REMARKS
WAUSAU         CLOUDY    64  59  83 S5        29.95S
MOSINEE        MOSUNNY   63  61  94 S9        29.97F
MARSHFIELD     MOSUNNY   65  60  84 S12       29.94F
STEVENS POINT  CLOUDY    62  59  88 S8        29.97S
WAUPACA        CLOUDY    64  63  96 SE5       29.98S
WAUTOMA        NOT AVBL
WISC RAPIDS    CLOUDY    64  60  87 S7        29.96F
CAMP DOUGLAS   NOT AVBL
$$

WIZ011>013-019>022-031-037>040-048>050-291400-
NORTHEAST WISCONSIN

CITY           SKY/WX    TMP DP  RH WIND       PRES   REMARKS
ANTIGO         CLOUDY    60  57  91 S5        29.98S
SHAWANO        CLOUDY    65  59  82 S3        29.97F
OCONTO         CLOUDY    64  60  88 S5        29.98R
STURGEON BAY   CLOUDY    61  54  77 S9        30.01F
GREEN BAY      LGT RAIN  66  59  78 S5        29.98F
MANITOWOC      NOT AVBL
APPLETON       LGT RAIN  64  59  82 S7        29.99S
CLINTONVILLE   RAIN      63  59  88 S6        29.98S
OSHKOSH        CLOUDY    64  59  83 S7        29.99S
$$

WIZ032>034-041-042-053>061-291400-
SOUTHWEST WISCONSIN

CITY           SKY/WX    TMP DP  RH WIND       PRES   REMARKS
LA CROSSE      PTSUNNY   69  62  78 S13       29.93R
SPARTA         MOSUNNY   66  62  87 S3        29.95S
VIROQUA        PTSUNNY   63  63 100 S7        29.96S
BOSCOBEL       CLOUDY    67  63  87 SW5       29.97R
PRAIRIE DU CHI CLOUDY    66  62  87 CALM      29.96R
PLATTEVILLE    CLOUDY    66  64  94 SE7       29.98S
$$

WIZ056-057-062-063-064-067-068-291400-
SOUTH CENTRAL WISCONSIN

CITY           SKY/WX    TMP DP  RH WIND       PRES   REMARKS
REEDSBURG      CLOUDY    64  62  94 S6        29.97R
BARABOO/DELLS  CLOUDY    64  62  92 S12G17    29.98R
LONE ROCK      NOT AVBL
MINERAL POINT  CLOUDY    66  63  88 SE9       29.98F
MADISON        CLOUDY    66  62  87 SE5       30.00F
MIDDLETON      CLOUDY    66  65  96 S6        30.01S
WATERTOWN      CLOUDY   N/A N/A N/A S3        30.02R
MONROE         CLOUDY    64  59  82 CALM      30.00F
JANESVILLE     PTSUNNY   72  61  68 S6        30.01
$$

WIZ051-052-058>065-066-070>072-291400-
SOUTHEAST WISCONSIN

CITY           SKY/WX    TMP DP  RH WIND       PRES   REMARKS
MILWAUKEE      CLOUDY    68  58  70 S9        30.02R
WAUKESHA       MOSUNNY   64  57  77 SW8       30.03S
MILWAUKEE/TIMM MOSUNNY   66  55  68 CALM      30.03R
RACINE         CLOUDY    67  58  72 S8        30.04S
BURLINGTON     CLOUDY    63  58  85 CALM      30.02S
KENOSHA        CLOUDY    71  63  75 S6        30.02S
FOND DU LAC    LGT RAIN  66  61  84 S5        30.01R
SHEBOYGAN      CLOUDY    63  57  81 SW5       30.01S
WEST BEND      CLOUDY    64  55  72 CALM      30.01S
JUNEAU         RAIN      62  58  86 S6        30.03S
$$

LSZ147-162-291400-
LAKE SUPERIOR

STATION/POSITION TIME  TEMP    WIND        PRES    WAVE
                       AIR SEA DIR/SP/G            HT/PER
                 (UTC) (F)     (DEG/KT/KT) (MB)    (FT/S)
W MID LAKE BUOY  1150   40 37  170/  4/  4   N/A     1
DEVILS ISLAND    1200   43     320/  6/  7   N/A
PORT WING        1240   41      20/  1/  3   N/A
SAXON HARBOR     1200   61      CALM  /  5   N/A
$$

LMZ867-665-643>646-291400-
LAKE MICHIGAN

STATION/POSITION TIME  TEMP    WIND        PRES    WAVE
                       AIR SEA DIR/SP/G            HT/PER
                 (UTC) (F)     (DEG/KT/KT) (MB)    (FT/S)
CHAMBERS ISLAND  1200   61     160/  7/ 12   N/A
N MID LAKE BUOY  1150   43 36  180/  8/  8   N/A     1
NORTHPORT PIER   1200   60     150/  9/ 14   N/A
SISTER BAY       1203   62     160/ 18/ 23   N/A
ALGOMA LAKESHORE 1223          200/  5/  6   N/A
KEWAUNEE LAKESHO 1200   51     170/  5/  8   N/A
SHEBOYGAN LAKESH 1200   52     170/  8/  8   N/A
PORT WASHINGTON  1200   55      CALM  /  2   N/A
ATWATER BUOY     1200   53     170/  6/  8   N/A
MILWAUKEE LAKESH 1200   55     210/  2/  3   N/A
S MID LAKE BUOY  1150   47 38  150/ 10/ 12   N/A     1
$$

TC  - TEMPERATURE IN CELSIUS
VSB - VISIBILITY IN STATUTE MILES
WCI - WIND CHILL INDEX
HX  - HEAT INDEX




USA.gov is the U.S. government's official web portal to all federal, state and local government web resources and services.